This is the latest recevied weather packets stored in our database for station/object KB0Y. If no packets are shown the sender has not sent any weather packets the latest 10 day(s).
| Time | Temp. | Humidity | Pressure | Rain* | Wind** | Luminosity | Snow |
|---|---|---|---|---|---|---|---|
| 1777598289 | 25° C | 68% | 1014.5 hPa | 0 mm | - | 0 W/m² | - |
| 1777597987 | 25° C | 67% | 1014.2 hPa | 0 mm | - | 0 W/m² | - |
| 1777597685 | 25.56° C | 67% | 1014.2 hPa | 0 mm | - | 0 W/m² | - |
| 1777597382 | 25.56° C | 67% | 1013.9 hPa | 0 mm | - | 0 W/m² | - |
| 1777597077 | 25.56° C | 67% | 1013.9 hPa | 0 mm | - | 0 W/m² | - |
| 1777596774 | 25.56° C | 66% | 1013.9 hPa | 0 mm | - | 0 W/m² | - |
| 1777596469 | 25.56° C | 66% | 1013.9 hPa | 0 mm | - | 0 W/m² | - |
| 1777596167 | 25.56° C | 66% | 1013.9 hPa | 0 mm | - | 0 W/m² | - |
| 1777595864 | 26.11° C | 66% | 1013.9 hPa | 0 mm | - | 0 W/m² | - |
| 1777595564 | 26.11° C | 66% | 1013.5 hPa | 0 mm | - | 0 W/m² | - |
| 1777595261 | 26.11° C | 65% | 1013.2 hPa | 0 mm | - | 0 W/m² | - |
| 1777594956 | 26.67° C | 64% | 1013.2 hPa | 0 mm | - | 0 W/m² | - |
| 1777594653 | 26.67° C | 64% | 1013.2 hPa | 0 mm | - | 0 W/m² | - |
| 1777594350 | 26.67° C | 63% | 1012.8 hPa | 0 mm | - | 0 W/m² | - |
| 1777594046 | 26.67° C | 63% | 1013.2 hPa | 0 mm | - | 1 W/m² | - |
| 1777593742 | 27.22° C | 63% | 1013.2 hPa | 0 mm | - | 5 W/m² | - |
| 1777593438 | 27.22° C | 63% | 1013.2 hPa | 0 mm | - | 11 W/m² | - |
| 1777593136 | 27.22° C | 63% | 1012.8 hPa | 0 mm | - | 17 W/m² | - |
| 1777592836 | 27.22° C | 62% | 1013.2 hPa | 0 mm | - | 22 W/m² | - |
| 1777592533 | 27.78° C | 62% | 1012.8 hPa | 0 mm | - | 27 W/m² | - |
| 1777592228 | 27.78° C | 61% | 1012.5 hPa | 0 mm | - | 31 W/m² | - |
| 1777591925 | 27.78° C | 61% | 1012.5 hPa | 0 mm | - | 33 W/m² | - |
| 1777591621 | 27.78° C | 61% | 1012.8 hPa | 0 mm | - | 37 W/m² | - |
| 1777591317 | 28.33° C | 61% | 1012.8 hPa | 0 mm | - | 41 W/m² | - |
| 1777591013 | 28.33° C | 60% | 1012.8 hPa | 0 mm | - | 61 W/m² | - |
* Rain latest hour (hover to see other rain measurements)
** Current wind speed in m/s (hover to see current wind gust speed)